When you browse on this site, cookies collect data to enhance your experience and personalize the content and advertising you see.
Visit our Privacy Policy to learn more. By continuing to use the site, you agree to this use of cookies and data.
  • en France
  • Liste des pays
  • À 7 jours
  • Température de l'eau
  • Carte satellitaire
  • Carte météo
  • Widgets météo
  • user-avatar
    Se connecter

    Météo par heure à Kaprun

    Ce jour, 22 Avril, Lundi

    Heure Température Précipitation Vent Pression Humidité
    00:00 +1°C° 0 mm 3 m/s 596 mmHg 87%
    01:00 0°C° 0 mm 3 m/s 596 mmHg 88%
    02:00 0°C° 0 mm 3 m/s 596 mmHg 88%
    03:00 0°C° 0 mm 3 m/s 595 mmHg 88%
    04:00 0°C° 0 mm 3 m/s 595 mmHg 89%
    05:00 0°C° 0 mm 3 m/s 595 mmHg 83%
    06:00 +2°C° 0 mm 2 m/s 595 mmHg 78%
    07:00 +3°C° 0 mm 2 m/s 595 mmHg 73%
    08:00 +5°C° 0 mm 2 m/s 595 mmHg 63%
    09:00 +7°C° 0 mm 2 m/s 596 mmHg 52%
    10:00 +9°C° 0 mm 2 m/s 596 mmHg 42%
    11:00 +10°C° 0 mm 2 m/s 596 mmHg 41%
    12:00 +12°C° 0 mm 2 m/s 596 mmHg 39%
    13:00 +13°C° 0 mm 2 m/s 596 mmHg 38%
    14:00 +11°C° 0 mm 3 m/s 595 mmHg 41%
    15:00 +11°C° 0 mm 3 m/s 594 mmHg 44%
    16:00 +11°C° 0 mm 3 m/s 594 mmHg 48%
    17:00 +8°C° 0 mm 3 m/s 593 mmHg 58%
    18:00 +5°C° 0 mm 3 m/s 591 mmHg 69%
    19:00 +3°C° 0 mm 3 m/s 590 mmHg 80%
    20:00 +1°C° 0 mm 4 m/s 590 mmHg 81%
    21:00 0°C° 0 mm 4 m/s 590 mmHg 82%
    22:00 -1°C° 0 mm 4 m/s 589 mmHg 82%
    23:00 -1°C° 0 mm 4 m/s 589 mmHg 82%

    Demain, 23 Avril, Mardi

    Heure Température Précipitation Vent Pression Humidité
    00:00 -1°C° 0 mm 4 m/s 588 mmHg 81%
    01:00 -2°C° 0 mm 4 m/s 588 mmHg 80%
    02:00 -2°C° 0 mm 4 m/s 588 mmHg 81%
    03:00 -1°C° 0 mm 4 m/s 588 mmHg 83%
    04:00 -1°C° 0 mm 4 m/s 587 mmHg 84%
    05:00 0°C° 0 mm 4 m/s 587 mmHg 82%
    06:00 0°C° 0 mm 4 m/s 588 mmHg 79%
    07:00 +1°C° 0 mm 4 m/s 588 mmHg 77%
    08:00 +3°C° 0.1 mm 4 m/s 588 mmHg 73%
    09:00 +4°C° 0.1 mm 4 m/s 589 mmHg 70%
    10:00 +6°C° 0.1 mm 4 m/s 589 mmHg 66%
    11:00 +6°C° 0.2 mm 4 m/s 589 mmHg 66%
    12:00 +6°C° 0.2 mm 4 m/s 589 mmHg 65%
    13:00 +6°C° 0.2 mm 4 m/s 589 mmHg 65%
    14:00 +6°C° 0.1 mm 4 m/s 589 mmHg 66%
    15:00 +6°C° 0.1 mm 4 m/s 589 mmHg 67%
    16:00 +6°C° 0.1 mm 4 m/s 589 mmHg 68%
    17:00 +4°C° 0.1 mm 4 m/s 588 mmHg 72%
    18:00 +3°C° 0.1 mm 4 m/s 588 mmHg 76%
    19:00 +1°C° 0.1 mm 4 m/s 588 mmHg 80%
    20:00 +1°C° 0 mm 4 m/s 588 mmHg 81%
    21:00 +1°C° 0 mm 4 m/s 589 mmHg 83%
    22:00 0°C° 0 mm 4 m/s 589 mmHg 85%
    23:00 0°C° 0 mm 4 m/s 589 mmHg 85%

    Après-demain, 24 Avril, Mercredi

    Heure Température Précipitation Vent Pression Humidité
    00:00 0°C° 0 mm 4 m/s 590 mmHg 85%
    01:00 0°C° 0 mm 4 m/s 590 mmHg 85%
    02:00 0°C° 0 mm 4 m/s 590 mmHg 85%
    03:00 0°C° 0 mm 4 m/s 590 mmHg 85%
    04:00 +1°C° 0 mm 4 m/s 591 mmHg 85%
    05:00 +1°C° 0.1 mm 4 m/s 591 mmHg 84%
    06:00 +3°C° 0.1 mm 4 m/s 592 mmHg 82%
    07:00 +3°C° 0.1 mm 4 m/s 592 mmHg 81%
    08:00 +4°C° 0 mm 4 m/s 593 mmHg 76%
    09:00 +6°C° 0 mm 4 m/s 594 mmHg 72%
    10:00 +7°C° 0 mm 4 m/s 595 mmHg 67%
    11:00 +8°C° 0 mm 4 m/s 595 mmHg 65%
    12:00 +8°C° 0 mm 4 m/s 596 mmHg 62%
    13:00 +10°C° 0 mm 4 m/s 596 mmHg 60%
    14:00 +10°C° 0 mm 4 m/s 596 mmHg 61%
    15:00 +8°C° 0 mm 4 m/s 596 mmHg 61%
    16:00 +8°C° 0 mm 4 m/s 596 mmHg 62%
    17:00 +7°C° 0 mm 4 m/s 595 mmHg 68%
    18:00 +5°C° 0 mm 4 m/s 595 mmHg 75%
    19:00 +4°C° 0 mm 4 m/s 594 mmHg 81%
    20:00 +3°C° 0 mm 4 m/s 594 mmHg 82%
    21:00 +3°C° 0 mm 4 m/s 595 mmHg 84%
    22:00 +3°C° 0 mm 4 m/s 595 mmHg 85%
    23:00 +2°C° 0 mm 5 m/s 595 mmHg 85%

    25 Avril, Jeudi

    Heure Température Précipitation Vent Pression Humidité
    00:00 +2°C° 0 mm 5 m/s 595 mmHg 84%
    01:00 +2°C° 0 mm 5 m/s 595 mmHg 84%
    02:00 +2°C° 0 mm 5 m/s 595 mmHg 84%
    03:00 +2°C° 0 mm 5 m/s 595 mmHg 85%
    04:00 +3°C° 0 mm 4 m/s 595 mmHg 85%
    05:00 +3°C° 0 mm 4 m/s 595 mmHg 84%
    06:00 +3°C° 0 mm 4 m/s 595 mmHg 82%
    07:00 +4°C° 0 mm 4 m/s 596 mmHg 81%
    08:00 +5°C° 0 mm 4 m/s 597 mmHg 74%
    09:00 +7°C° 0 mm 4 m/s 597 mmHg 67%
    10:00 +8°C° 0 mm 4 m/s 598 mmHg 60%
    11:00 +9°C° 0 mm 5 m/s 598 mmHg 57%
    12:00 +9°C° 0 mm 5 m/s 598 mmHg 54%
    13:00 +10°C° 0 mm 5 m/s 598 mmHg 52%
    14:00 +10°C° 0 mm 5 m/s 598 mmHg 52%
    15:00 +10°C° 0 mm 5 m/s 598 mmHg 53%
    16:00 +9°C° 0 mm 5 m/s 597 mmHg 54%
    17:00 +8°C° 0 mm 5 m/s 597 mmHg 62%
    18:00 +6°C° 0 mm 4 m/s 596 mmHg 70%
    19:00 +4°C° 0 mm 4 m/s 595 mmHg 77%
    20:00 +4°C° 0 mm 4 m/s 595 mmHg 78%
    21:00 +3°C° 0 mm 4 m/s 595 mmHg 78%
    22:00 +2°C° 0 mm 5 m/s 595 mmHg 79%
    23:00 +3°C° 0 mm 4 m/s 595 mmHg 79%

    26 Avril, Vendredi

    Heure Température Précipitation Vent Pression Humidité
    00:00 +3°C° 0 mm 4 m/s 595 mmHg 80%
    01:00 +1°C° 0 mm 4 m/s 595 mmHg 81%
    02:00 +1°C° 0 mm 4 m/s 594 mmHg 82%
    03:00 +1°C° 0 mm 4 m/s 594 mmHg 83%
    04:00 +1°C° 0 mm 4 m/s 594 mmHg 84%
    05:00 +1°C° 0 mm 4 m/s 594 mmHg 82%
    06:00 +3°C° 0 mm 4 m/s 594 mmHg 80%
    07:00 +3°C° 0 mm 3 m/s 594 mmHg 78%
    08:00 +5°C° 0 mm 3 m/s 595 mmHg 71%
    09:00 +7°C° 0 mm 2 m/s 596 mmHg 63%
    10:00 +9°C° 0 mm 2 m/s 597 mmHg 55%
    11:00 +7°C° 1.1 mm 2 m/s 597 mmHg 64%
    12:00 +5°C° 1.1 mm 2 m/s 596 mmHg 73%
    13:00 +3°C° 1.1 mm 3 m/s 596 mmHg 82%
    14:00 0°C° 2.3 mm 3 m/s 595 mmHg 86%
    15:00 -2°C° 2.3 mm 3 m/s 594 mmHg 90%
    16:00 -5°C° 2.3 mm 3 m/s 593 mmHg 94%
    17:00 -5°C° 1.2 mm 3 m/s 594 mmHg 94%
    18:00 -6°C° 1.2 mm 3 m/s 594 mmHg 95%
    19:00 -5°C° 1.2 mm 2 m/s 595 mmHg 95%
    20:00 -5°C° 0.5 mm 2 m/s 595 mmHg 95%
    21:00 -6°C° 0.5 mm 3 m/s 595 mmHg 96%
    22:00 -6°C° 0.5 mm 3 m/s 596 mmHg 96%
    23:00 -6°C° 0.9 mm 3 m/s 596 mmHg 96%

    27 Avril, Samedi

    Heure Température Précipitation Vent Pression Humidité
    00:00 -6°C° 0.9 mm 3 m/s 596 mmHg 96%
    01:00 -6°C° 0.9 mm 3 m/s 596 mmHg 96%
    02:00 -6°C° 0.6 mm 3 m/s 596 mmHg 96%
    03:00 -6°C° 0.6 mm 3 m/s 596 mmHg 96%
    04:00 -6°C° 0.6 mm 3 m/s 597 mmHg 96%
    05:00 -6°C° 0.5 mm 3 m/s 597 mmHg 96%
    06:00 -5°C° 0.5 mm 3 m/s 597 mmHg 95%
    07:00 -5°C° 0.5 mm 3 m/s 598 mmHg 95%
    08:00 -4°C° 0.1 mm 3 m/s 598 mmHg 94%
    09:00 -4°C° 0.1 mm 3 m/s 598 mmHg 93%
    10:00 -2°C° 0.1 mm 3 m/s 599 mmHg 92%
    11:00 -1°C° 0 mm 3 m/s 599 mmHg 92%
    12:00 -1°C° 0 mm 3 m/s 599 mmHg 91%
    13:00 0°C° 0 mm 3 m/s 599 mmHg 91%
    14:00 0°C° 0 mm 3 m/s 599 mmHg 90%
    15:00 0°C° 0 mm 3 m/s 599 mmHg 90%
    16:00 0°C° 0 mm 3 m/s 599 mmHg 90%
    17:00 -1°C° 0 mm 2 m/s 599 mmHg 91%
    18:00 -2°C° 0 mm 2 m/s 599 mmHg 93%
    19:00 -3°C° 0 mm 2 m/s 599 mmHg 95%
    20:00 -3°C° 0 mm 2 m/s 599 mmHg 94%
    21:00 -4°C° 0 mm 2 m/s 599 mmHg 94%
    22:00 -3°C° 0 mm 1 m/s 600 mmHg 93%
    23:00 -5°C° 0 mm 2 m/s 600 mmHg 93%
    Voir plus